When you browse on this site, cookies collect data to enhance your experience and personalize the content and advertising you see.
Visit our Privacy Policy to learn more. By continuing to use the site, you agree to this use of cookies and data.
  • In Spain
  • List of Countries
  • For 7 days
  • Water Temperature
  • Weather Map
  • Weather Widgets
  • user-avatar
    Login

    Hourly Weather Viedma

    Today, 9 December, Monday

    Time Temperature Precipitation Wind Pressure Humidity
    00:00 +15°C° 0 mm 5 mps 754 mmHg 56%
    01:00 +15°C° 0 mm 5 mps 754 mmHg 57%
    02:00 +15°C° 0 mm 5 mps 753 mmHg 61%
    03:00 +15°C° 0 mm 4 mps 753 mmHg 60%
    04:00 +14°C° 0 mm 4 mps 753 mmHg 60%
    05:00 +14°C° 0 mm 3 mps 753 mmHg 60%
    06:00 +18°C° 0 mm 4 mps 753 mmHg 50%
    07:00 +21°C° 0 mm 4 mps 753 mmHg 40%
    08:00 +25°C° 0 mm 4 mps 753 mmHg 30%
    09:00 +27°C° 0 mm 4 mps 752 mmHg 26%
    10:00 +30°C° 0 mm 4 mps 752 mmHg 21%
    11:00 +33°C° 0 mm 4 mps 751 mmHg 17%
    12:00 +33°C° 0 mm 5 mps 751 mmHg 17%
    13:00 +34°C° 0 mm 5 mps 751 mmHg 17%
    14:00 +34°C° 0 mm 6 mps 750 mmHg 17%
    15:00 +33°C° 0 mm 5 mps 750 mmHg 18%
    16:00 +33°C° 0 mm 5 mps 749 mmHg 19%
    17:00 +32°C° 0 mm 4 mps 749 mmHg 20%
    18:00 +28°C° 0 mm 5 mps 749 mmHg 28%
    19:00 +26°C° 0 mm 5 mps 749 mmHg 35%
    20:00 +22°C° 0 mm 5 mps 749 mmHg 42%
    21:00 +21°C° 0 mm 5 mps 749 mmHg 44%
    22:00 +20°C° 0 mm 4 mps 749 mmHg 47%
    23:00 +20°C° 0 mm 4 mps 750 mmHg 49%

    Tomorrow, 10 December, Tuesday

    Time Temperature Precipitation Wind Pressure Humidity
    00:00 +19°C° 0 mm 4 mps 750 mmHg 49%
    01:00 +19°C° 0 mm 3 mps 750 mmHg 49%
    02:00 +19°C° 0 mm 3 mps 751 mmHg 49%
    03:00 +19°C° 0 mm 4 mps 751 mmHg 49%
    04:00 +19°C° 0 mm 5 mps 751 mmHg 49%
    05:00 +19°C° 0 mm 6 mps 752 mmHg 48%
    06:00 +21°C° 0 mm 7 mps 752 mmHg 43%
    07:00 +22°C° 0 mm 8 mps 753 mmHg 38%
    08:00 +24°C° 0 mm 9 mps 753 mmHg 33%
    09:00 +26°C° 0 mm 8 mps 753 mmHg 31%
    10:00 +27°C° 0 mm 8 mps 753 mmHg 29%
    11:00 +28°C° 0 mm 7 mps 754 mmHg 27%
    12:00 +28°C° 0 mm 7 mps 753 mmHg 26%
    13:00 +28°C° 0 mm 6 mps 753 mmHg 26%
    14:00 +29°C° 0 mm 6 mps 753 mmHg 25%
    15:00 +29°C° 0 mm 5 mps 753 mmHg 24%
    16:00 +29°C° 0 mm 4 mps 753 mmHg 24%
    17:00 +28°C° 0 mm 3 mps 752 mmHg 24%
    18:00 +27°C° 0 mm 4 mps 752 mmHg 29%
    19:00 +25°C° 0 mm 5 mps 752 mmHg 34%
    20:00 +22°C° 0 mm 5 mps 752 mmHg 39%
    21:00 +21°C° 0 mm 5 mps 752 mmHg 40%
    22:00 +21°C° 0 mm 6 mps 751 mmHg 42%
    23:00 +20°C° 0 mm 6 mps 751 mmHg 44%

    Day after tomorrow, 11 December, Wednesday

    Time Temperature Precipitation Wind Pressure Humidity
    00:00 +20°C° 0 mm 5 mps 750 mmHg 46%
    01:00 +20°C° 0 mm 5 mps 750 mmHg 49%
    02:00 +19°C° 0 mm 5 mps 749 mmHg 51%
    03:00 +19°C° 0 mm 5 mps 749 mmHg 51%
    04:00 +19°C° 0 mm 5 mps 748 mmHg 51%
    05:00 +17°C° 0 mm 5 mps 748 mmHg 51%
    06:00 +21°C° 0 mm 6 mps 748 mmHg 42%
    07:00 +24°C° 0 mm 8 mps 748 mmHg 32%
    08:00 +27°C° 0 mm 10 mps 748 mmHg 22%
    09:00 +28°C° 0 mm 10 mps 747 mmHg 24%
    10:00 +28°C° 0 mm 10 mps 747 mmHg 26%
    11:00 +28°C° 0 mm 10 mps 747 mmHg 28%
    12:00 +29°C° 0 mm 8 mps 747 mmHg 25%
    13:00 +30°C° 0 mm 7 mps 747 mmHg 22%
    14:00 +32°C° 0 mm 6 mps 746 mmHg 19%
    15:00 +32°C° 0 mm 7 mps 746 mmHg 19%
    16:00 +30°C° 0 mm 7 mps 745 mmHg 19%
    17:00 +31°C° 0 mm 8 mps 745 mmHg 19%
    18:00 +28°C° 0 mm 7 mps 745 mmHg 20%
    19:00 +27°C° 0 mm 7 mps 746 mmHg 22%
    20:00 +24°C° 0 mm 6 mps 746 mmHg 23%
    21:00 +22°C° 0 mm 7 mps 747 mmHg 30%
    22:00 +21°C° 0 mm 9 mps 748 mmHg 38%
    23:00 +18°C° 0 mm 10 mps 749 mmHg 45%

    12 December, Thursday

    Time Temperature Precipitation Wind Pressure Humidity
    00:00 +16°C° 0 mm 10 mps 750 mmHg 51%
    01:00 +14°C° 0 mm 11 mps 751 mmHg 57%
    02:00 +12°C° 0 mm 11 mps 752 mmHg 63%
    03:00 +12°C° 0 mm 11 mps 752 mmHg 59%
    04:00 +12°C° 0 mm 11 mps 753 mmHg 56%
    05:00 +11°C° 0 mm 11 mps 753 mmHg 52%
    06:00 +12°C° 0 mm 11 mps 754 mmHg 49%
    07:00 +13°C° 0 mm 11 mps 754 mmHg 45%
    08:00 +13°C° 0 mm 12 mps 755 mmHg 42%
    09:00 +14°C° 0 mm 12 mps 755 mmHg 39%
    10:00 +15°C° 0 mm 12 mps 756 mmHg 37%
    11:00 +17°C° 0 mm 12 mps 756 mmHg 35%
    12:00 +17°C° 0 mm 11 mps 756 mmHg 35%
    13:00 +17°C° 0 mm 11 mps 756 mmHg 35%
    14:00 +17°C° 0 mm 11 mps 756 mmHg 36%
    15:00 +17°C° 0 mm 10 mps 756 mmHg 37%
    16:00 +16°C° 0 mm 9 mps 756 mmHg 38%
    17:00 +16°C° 0 mm 8 mps 756 mmHg 40%
    18:00 +14°C° 0 mm 7 mps 757 mmHg 44%
    19:00 +13°C° 0 mm 5 mps 757 mmHg 49%
    20:00 +12°C° 0 mm 4 mps 758 mmHg 53%
    21:00 +11°C° 0 mm 3 mps 758 mmHg 55%
    22:00 +10°C° 0 mm 2 mps 758 mmHg 58%
    23:00 +10°C° 0 mm 2 mps 758 mmHg 61%

    13 December, Friday

    Time Temperature Precipitation Wind Pressure Humidity
    00:00 +9°C° 0 mm 2 mps 758 mmHg 62%
    01:00 +9°C° 0 mm 2 mps 757 mmHg 63%
    02:00 +9°C° 0 mm 2 mps 757 mmHg 64%
    03:00 +9°C° 0 mm 2 mps 757 mmHg 63%
    04:00 +9°C° 0 mm 2 mps 757 mmHg 61%
    05:00 +9°C° 0 mm 3 mps 757 mmHg 60%
    06:00 +11°C° 0 mm 3 mps 757 mmHg 51%
    07:00 +14°C° 0 mm 4 mps 756 mmHg 41%
    08:00 +17°C° 0 mm 5 mps 756 mmHg 32%
    09:00 +20°C° 0 mm 6 mps 756 mmHg 28%
    10:00 +22°C° 0 mm 6 mps 755 mmHg 24%
    11:00 +26°C° 0 mm 7 mps 755 mmHg 20%
    12:00 +27°C° 0 mm 6 mps 754 mmHg 18%
    13:00 +28°C° 0 mm 6 mps 753 mmHg 16%
    14:00 +30°C° 0 mm 6 mps 752 mmHg 13%
    15:00 +29°C° 0 mm 6 mps 751 mmHg 16%
    16:00 +28°C° 0 mm 6 mps 751 mmHg 18%
    17:00 +27°C° 0 mm 6 mps 750 mmHg 21%
    18:00 +24°C° 0 mm 6 mps 750 mmHg 29%
    19:00 +22°C° 0 mm 6 mps 750 mmHg 37%
    20:00 +18°C° 0 mm 7 mps 750 mmHg 45%
    21:00 +19°C° 0 mm 5 mps 750 mmHg 50%
    22:00 +18°C° 0 mm 4 mps 750 mmHg 55%
    23:00 +18°C° 0 mm 3 mps 749 mmHg 61%

    14 December, Saturday

    Time Temperature Precipitation Wind Pressure Humidity
    00:00 +17°C° 0 mm 2 mps 749 mmHg 63%
    01:00 +17°C° 0 mm 2 mps 749 mmHg 66%
    02:00 +16°C° 0 mm 2 mps 749 mmHg 68%
    03:00 +17°C° 0 mm 3 mps 750 mmHg 63%
    04:00 +17°C° 0 mm 4 mps 750 mmHg 57%
    05:00 +17°C° 0 mm 6 mps 750 mmHg 51%
    06:00 +18°C° 0 mm 7 mps 751 mmHg 44%
    07:00 +21°C° 0 mm 8 mps 752 mmHg 36%
    08:00 +22°C° 0 mm 8 mps 752 mmHg 29%
    09:00 +23°C° 0 mm 9 mps 753 mmHg 27%
    10:00 +24°C° 0 mm 9 mps 753 mmHg 25%
    11:00 +26°C° 0 mm 9 mps 753 mmHg 23%
    12:00 +26°C° 0 mm 8 mps 753 mmHg 23%
    13:00 +26°C° 0 mm 8 mps 753 mmHg 23%
    14:00 +26°C° 0 mm 8 mps 753 mmHg 23%
    15:00 +24°C° 0 mm 8 mps 753 mmHg 26%
    16:00 +23°C° 0 mm 7 mps 754 mmHg 29%
    17:00 +22°C° 0 mm 7 mps 754 mmHg 32%
    18:00 +20°C° 0 mm 7 mps 755 mmHg 42%
    19:00 +17°C° 0 mm 6 mps 755 mmHg 52%
    20:00 +15°C° 0 mm 5 mps 756 mmHg 61%
    21:00 +14°C° 0 mm 5 mps 757 mmHg 64%
    22:00 +14°C° 0 mm 4 mps 757 mmHg 67%
    23:00 +13°C° 0 mm 3 mps 758 mmHg 71%
    Show more